| time (UTC) | temp C | wind direction | speed KPH | gust KPH | rain 1hr cm | rain 24hr cm | rain mn cm | humidity % | barometer mb |
| 20260503204002 | 11 | 191 | 1.6 | 3.2 | 0.00 | 0.00 | 0.00 | 81 | 1027.2 |
| 20260503203002 | 10 | 233 | 4.8 | 9.7 | 0.00 | 0.00 | 0.00 | 81 | 1027.1 |
| 20260503202023 | 10 | 231 | 1.6 | 4.8 | 0.00 | 0.00 | 0.00 | 82 | 1027.0 |
| 20260503201003 | 10 | 114 | 0.0 | 0.0 | 0.00 | 0.00 | 0.00 | 82 | 1027.1 |
| 20260503200003 | 10 | 218 | 1.6 | 3.2 | 0.00 | 0.00 | 0.00 | 82 | 1027.1 |
| 20260503195002 | 10 | 199 | 1.6 | 1.6 | 0.00 | 0.00 | 0.00 | 83 | 1027.2 |
| 20260503194024 | 10 | 218 | 1.6 | 1.6 | 0.00 | 0.00 | 0.00 | 83 | 1027.3 |
| 20260503193024 | 10 | 216 | 3.2 | 8.0 | 0.00 | 0.00 | 0.00 | 82 | 1027.3 |
| 20260503192003 | 10 | 233 | 3.2 | 8.0 | 0.00 | 0.00 | 0.00 | 82 | 1027.3 |
| 20260503191002 | 10 | 227 | 1.6 | 4.8 | 0.00 | 0.00 | 0.00 | 81 | 1027.3 |
| 20260503190003 | 10 | 172 | 1.6 | 3.2 | 0.00 | 0.00 | 0.00 | 81 | 1027.3 |
| 20260503185002 | 10 | 204 | 1.6 | 3.2 | 0.00 | 0.00 | 0.00 | 81 | 1027.2 |
| 20260503184003 | 10 | 196 | 3.2 | 4.8 | 0.00 | 0.00 | 0.00 | 81 | 1027.1 |
| 20260503183003 | 10 | 203 | 1.6 | 3.2 | 0.00 | 0.00 | 0.00 | 81 | 1027.1 |
| 20260503182002 | 10 | 193 | 1.6 | 1.6 | 0.00 | 0.00 | 0.00 | 81 | 1027.1 |
| 20260503181003 | 10 | 209 | 1.6 | 3.2 | 0.00 | 0.00 | 0.00 | 81 | 1027.2 |
| 20260503180024 | 10 | 203 | 3.2 | 8.0 | 0.00 | 0.00 | 0.00 | 81 | 1027.2 |
| 20260503175003 | 10 | 218 | 3.2 | 4.8 | 0.00 | 0.00 | 0.00 | 80 | 1027.2 |
| 20260503174002 | 10 | 66 | 1.6 | 1.6 | 0.00 | 0.00 | 0.00 | 79 | 1027.2 |
| 20260503173002 | 11 | 231 | 0.0 | 0.0 | 0.00 | 0.00 | 0.00 | 78 | 1027.2 |
| 20260503172003 | 11 | 14 | 1.6 | 3.2 | 0.00 | 0.00 | 0.00 | 79 | 1027.2 |
| 20260503171003 | 11 | 216 | 1.6 | 4.8 | 0.00 | 0.00 | 0.00 | 79 | 1027.2 |
| 20260503151002 | 12 | 92 | 1.6 | 8.0 | 0.00 | 0.00 | 0.00 | 77 | 1027.0 |
| 20260503131003 | 12 | 222 | 0.0 | 3.2 | 0.00 | 0.00 | 0.00 | 82 | 1026.7 |
| 20260503081003 | 20 | 81 | 1.6 | 4.8 | 0.00 | 0.00 | 0.00 | 49 | 1025.0 |
| 20260503072002 | 20 | 196 | 3.2 | 4.8 | 0.00 | 0.00 | 0.00 | 49 | 1024.9 |
| 20260503071003 | 20 | 89 | 4.8 | 9.7 | 0.00 | 0.00 | 0.00 | 50 | 1024.9 |
| 20260503055003 | 19 | 60 | 4.8 | 9.7 | 0.00 | 0.00 | 0.00 | 53 | 1025.5 |
| 20260503054023 | 18 | 104 | 3.2 | 9.7 | 0.00 | 0.00 | 0.00 | 54 | 1025.4 |
| 20260503053002 | 18 | 85 | 6.4 | 11.3 | 0.00 | 0.00 | 0.00 | 55 | 1025.5 |
| 20260503052024 | 18 | 66 | 3.2 | 8.0 | 0.00 | 0.00 | 0.00 | 57 | 1025.5 |
| 20260503051004 | 18 | 78 | 9.7 | 16.1 | 0.00 | 0.00 | 0.00 | 56 | 1025.7 |
| 20260503050024 | 18 | 99 | 3.2 | 4.8 | 0.00 | 0.00 | 0.00 | 57 | 1025.9 |
| 20260503045024 | 18 | 78 | 4.8 | 8.0 | 0.00 | 0.00 | 0.00 | 57 | 1026.0 |
| 20260503044003 | 18 | 74 | 6.4 | 11.3 | 0.00 | 0.00 | 0.00 | 57 | 1026.2 |
| 20260503043003 | 17 | 80 | 3.2 | 4.8 | 0.00 | 0.00 | 0.00 | 59 | 1026.3 |
| 20260503042003 | 17 | 93 | 4.8 | 11.3 | 0.00 | 0.00 | 0.00 | 61 | 1026.5 |
| 20260503041003 | 16 | 124 | 1.6 | 8.0 | 0.00 | 0.00 | 0.00 | 62 | 1026.8 |
| 20260503040002 | 16 | 103 | 3.2 | 4.8 | 0.00 | 0.00 | 0.00 | 63 | 1027.0 |
| 20260503035003 | 16 | 193 | 1.6 | 3.2 | 0.00 | 0.00 | 0.00 | 65 | 1027.1 |
| 20260503034003 | 16 | 86 | 3.2 | 9.7 | 0.00 | 0.00 | 0.00 | 66 | 1027.1 |
| 20260503033024 | 16 | 108 | 6.4 | 12.9 | 0.00 | 0.00 | 0.00 | 65 | 1027.3 |
| 20260503032003 | 16 | 57 | 8.0 | 16.1 | 0.00 | 0.00 | 0.00 | 64 | 1027.4 |
| 20260503031003 | 16 | 16 | 1.6 | 8.0 | 0.00 | 0.00 | 0.00 | 65 | 1027.5 |
| 20260503030003 | 16 | 105 | 4.8 | 11.3 | 0.00 | 0.00 | 0.00 | 66 | 1027.5 |
| 20260503025002 | 15 | 135 | 3.2 | 4.8 | 0.00 | 0.00 | 0.00 | 66 | 1027.7 |
| 20260503024002 | 15 | 93 | 4.8 | 8.0 | 0.00 | 0.00 | 0.00 | 66 | 1027.8 |
| 20260503023003 | 15 | 73 | 3.2 | 8.0 | 0.00 | 0.00 | 0.00 | 66 | 1027.9 |
| 20260503022003 | 15 | 163 | 3.2 | 8.0 | 0.00 | 0.00 | 0.00 | 67 | 1027.9 |
| 20260503021003 | 15 | 196 | 0.0 | 0.0 | 0.00 | 0.00 | 0.00 | 69 | 1027.9 |
| 20260503020003 | 14 | 103 | 3.2 | 8.0 | 0.00 | 0.00 | 0.00 | 71 | 1027.9 |
| 20260503015003 | 13 | 88 | 3.2 | 4.8 | 0.00 | 0.00 | 0.00 | 71 | 1027.9 |
| 20260503014023 | 13 | 66 | 3.2 | 8.0 | 0.00 | 0.00 | 0.00 | 71 | 1027.8 |
| 20260503013002 | 13 | 86 | 6.4 | 11.3 | 0.00 | 0.00 | 0.00 | 71 | 1027.8 |
| 20260503012003 | 13 | 78 | 6.4 | 11.3 | 0.00 | 0.00 | 0.00 | 75 | 1027.8 |
| 20260503011003 | 12 | 112 | 3.2 | 4.8 | 0.00 | 0.00 | 0.00 | 77 | 1027.8 |
| 20260503010003 | 12 | 107 | 3.2 | 8.0 | 0.00 | 0.00 | 0.00 | 79 | 1027.8 |
| 20260503005003 | 11 | 130 | 1.6 | 3.2 | 0.00 | 0.00 | 0.00 | 83 | 1027.7 |
| 20260503004003 | 11 | 150 | 3.2 | 8.0 | 0.00 | 0.00 | 0.00 | 87 | 1027.7 |
| 20260503003024 | 10 | 16 | 3.2 | 8.0 | 0.00 | 0.00 | 0.00 | 90 | 1027.8 |
| 20260503001003 | 8 | 107 | 1.6 | 3.2 | 0.00 | 0.00 | 0.00 | 90 | 1027.6 |
| 20260502235003 | 8 | 135 | 0.0 | 0.0 | 0.00 | 0.00 | 0.00 | 91 | 1027.3 |
| 20260502234003 | 7 | 101 | 3.2 | 4.8 | 0.00 | 0.00 | 0.00 | 93 | 1027.1 |
| 20260502233003 | 6 | 59 | 0.0 | 0.0 | 0.00 | 0.00 | 0.00 | 91 | 1027.0 |
| 20260502232024 | 6 | 53 | 1.6 | 4.8 | 0.00 | 0.00 | 0.00 | 90 | 1026.9 |
| 20260502231024 | 6 | 255 | 1.6 | 3.2 | 0.00 | 0.00 | 0.00 | 90 | 1026.8 |
| 20260502230003 | 6 | 9 | 1.6 | 4.8 | 0.00 | 0.00 | 0.00 | 90 | 1026.6 |
| 20260502223003 | 6 | 50 | 1.6 | 8.0 | 0.00 | 0.00 | 0.00 | 89 | 1026.4 |
| 20260502222003 | 6 | 175 | 1.6 | 8.0 | 0.00 | 0.00 | 0.00 | 90 | 1026.4 |
| 20260502221003 | 6 | 198 | 4.8 | 11.3 | 0.00 | 0.00 | 0.00 | 90 | 1026.3 |
| 20260502220003 | 6 | 190 | 3.2 | 11.3 | 0.00 | 0.00 | 0.00 | 89 | 1026.2 |
| 20260502215024 | 6 | 211 | 4.8 | 9.7 | 0.00 | 0.00 | 0.00 | 89 | 1026.2 |
| 20260502214003 | 6 | 191 | 3.2 | 8.0 | 0.00 | 0.00 | 0.00 | 89 | 1026.2 |
| 20260502212024 | 6 | 212 | 1.6 | 8.0 | 0.00 | 0.00 | 0.00 | 89 | 1025.9 |
| 20260502211003 | 6 | 200 | 3.2 | 8.0 | 0.00 | 0.00 | 0.00 | 89 | 1025.9 |
| 20260502210002 | 6 | 182 | 1.6 | 4.8 | 0.00 | 0.00 | 0.00 | 89 | 1025.8 |
| 20260502205003 | 6 | 222 | 3.2 | 8.0 | 0.00 | 0.00 | 0.00 | 88 | 1025.7 |